Vero Beach, FL

2:40 AM EDT on August 27, 2016 (GMT -0400)
Vero Beach Municipal

Weather History for KVRB - June, 2013

Change the Weather History Date:

Monday, June 3, 2013

  Actual Average Record
Temperature  
Mean Temperature 81 °F 79 °F  
Max Temperature 89 °F 87 °F 96 °F (1945)
Min Temperature 73 °F 71 °F 60 °F (1965)
Degree Days  
Heating Degree Days 0 0  
Month to date heating degree days 0 0  
Since 1 June heating degree days 0 0  
Since 1 July heating degree days 398 456  
Cooling Degree Days 16 14  
Month to date cooling degree days 49 42  
Year to date cooling degree days 956 848  
Since 1 June cooling degree days 49 42  
Growing Degree Days 30 (Base 50)    
Moisture  
Dew Point 73 °F    
Average Humidity 80    
Maximum Humidity 100    
Minimum Humidity 59    
Precipitation  
Precipitation T in 0.20 in 2.15 in (2010)
Month to date precipitation 0.04 0.58  
Year to date precipitation 15.26 15.95  
Sea Level Pressure  
Sea Level Pressure 29.96 in    
Wind  
Wind Speed 6 mph (SSW)    
Max Wind Speed 21 mph    
Max Gust Speed 24 mph    
Visibility 10 miles    
Events Thunderstorm    
T = Trace of Precipitation, MM = Missing Value Source: NWS Daily Summary

Daily Weather History Graph

Daily Weather History Graph

Search for Another Location

Airport or City:

Trip Planner

Search our weather history database for the weather conditions in past years. The results will help you decide how hot, cold, wet, or windy it might be!

Date:

Astronomy

Jun. 03, 2013 Rise Set
Actual Time 6:25 AM EDT 8:14 PM EDT
Civil Twilight 5:59 AM EDT 8:40 PM EDT
Nautical Twilight 5:27 AM EDT 9:12 PM EDT
Astronomical Twilight 4:54 AM EDT 9:45 PM EDT
Moon 3:01 AM EDT (6/3) 4:01 PM EDT (6/3)
Length of Visible Light 14h 40m
Length of Day
13h 48m
Waning Crescent, 22% of the Moon is Illuminated
Jun 3
Waning Crescent
Jun 8
New
Jun 16
First Quarter
Jun 23
Full
Jun 30
Last Quarter

Hourly Weather History & Observations

Time (EDT) Temp. Heat Index Dew Point Humidity Pressure Visibility Wind Dir Wind Speed Gust Speed Precip Events Conditions
12:53 AM 75.0 °F - 72.0 °F 90% 29.98 in 10.0 mi SE 3.5 mph - N/A   Partly Cloudy
1:53 AM 75.0 °F - 72.0 °F 90% 29.96 in 10.0 mi SSW 4.6 mph - N/A   Partly Cloudy
2:53 AM 75.9 °F - 73.0 °F 91% 29.95 in 10.0 mi South 3.5 mph - N/A   Overcast
3:53 AM 75.9 °F - 73.0 °F 91% 29.94 in 10.0 mi Calm Calm - N/A   Overcast
4:53 AM 75.0 °F - 73.0 °F 94% 29.93 in 10.0 mi South 4.6 mph - N/A   Clear
5:53 AM 73.9 °F - 73.0 °F 97% 29.94 in 10.0 mi SSW 4.6 mph - N/A   Clear
6:53 AM 73.9 °F - 73.0 °F 97% 29.96 in 10.0 mi SSW 4.6 mph - N/A   Clear
7:53 AM 77.0 °F - 73.9 °F 90% 29.97 in 10.0 mi SW 4.6 mph - N/A   Clear
8:53 AM 80.1 °F 84.5 °F 73.9 °F 81% 29.98 in 10.0 mi SSW 8.1 mph - N/A   Partly Cloudy
9:53 AM 84.0 °F 91.2 °F 73.9 °F 72% 29.98 in 10.0 mi SW 8.1 mph - N/A   Scattered Clouds
10:53 AM 82.9 °F 87.5 °F 71.1 °F 67% 29.99 in 10.0 mi SSW 9.2 mph - N/A   Mostly Cloudy
11:53 AM 86.0 °F 92.2 °F 72.0 °F 63% 29.99 in 10.0 mi SSW 6.9 mph - N/A   Mostly Cloudy
12:00 PM 87.8 °F 93.8 °F 71.6 °F 58% 29.99 in 10.0 mi South 8.1 mph - N/A   Partly Cloudy
12:53 PM 88.0 °F 93.8 °F 71.1 °F 57% 29.97 in 10.0 mi South 6.9 mph - N/A   Scattered Clouds
1:53 PM 84.9 °F 93.3 °F 75.0 °F 72% 29.95 in 10.0 mi ESE 9.2 mph - N/A   Mostly Cloudy
2:53 PM 86.0 °F 93.8 °F 73.9 °F 67% 29.94 in 10.0 mi ESE 11.5 mph - N/A   Clear
3:53 PM 84.0 °F 89.6 °F 72.0 °F 67% 29.93 in 10.0 mi SE 15.0 mph - N/A   Scattered Clouds
4:53 PM 81.0 °F 84.9 °F 71.1 °F 72% 29.93 in 10.0 mi South 9.2 mph - N/A   Mostly Cloudy
5:53 PM 79.0 °F - 73.9 °F 84% 29.94 in 10.0 mi SW 6.9 mph - 0.00 in   Scattered Clouds
6:16 PM 78.8 °F - 73.4 °F 83% 29.94 in 10.0 mi SW 6.9 mph - N/A Thunderstorm Overcast
6:45 PM 80.6 °F 84.6 °F 71.6 °F 74% 29.94 in 10.0 mi SW 4.6 mph - N/A   Mostly Cloudy
6:53 PM 80.1 °F 83.8 °F 72.0 °F 76% 29.94 in 10.0 mi SSW 6.9 mph - N/A   Mostly Cloudy
7:53 PM 78.1 °F - 73.0 °F 84% 29.96 in 10.0 mi WSW 3.5 mph - N/A   Overcast
8:53 PM 77.0 °F - 73.0 °F 88% 29.98 in 10.0 mi WNW 4.6 mph - N/A   Scattered Clouds
9:53 PM 78.1 °F - 73.0 °F 84% 30.00 in 10.0 mi Calm Calm - N/A   Overcast
10:53 PM 77.0 °F - 73.0 °F 88% 30.03 in 10.0 mi West 4.6 mph - 0.00 in   Overcast
11:53 PM 75.9 °F - 73.0 °F 91% 30.02 in 10.0 mi SW 4.6 mph - 0.00 in   Overcast